This demonstration page uses our WeatherBlox Daily Observations layout. Learn more.

Left ArrowRight Arrow

Hourly Observations for March 11, 2020

Temp ( °F °C ) Dew Point ( °F °C ) Humidity (%) Winds ( mph kmh ) Pressure ( in mb ) Visibility ( mi km ) Precip ( " mm )
12:53 am 00:53 Cloudy 44 6.7 39 3.9 83 83 NNE 3 6 30.22 1024 10 16.0934 N/A
1:11 am 01:11 Cloudy 44 6.7 38 3.3 79 79 NE 3 6 30.23 1024 10 16.0934 N/A
1:53 am 01:53 Cloudy 44 6.7 38 3.3 79 79 N N/A 30.21 1023 10 16.0934 N/A
2:53 am 02:53 Cloudy 44 6.7 39 3.9 83 83 N N/A 30.18 1022 10 16.0934 N/A
3:05 am 03:05 Cloudy 44 6.7 38 3.3 79 79 N N/A 30.19 1022 10 16.0934 N/A
3:38 am 03:38 Cloudy 44 6.7 39 3.9 83 83 N N/A 30.17 1022 10 16.0934 N/A
3:53 am 03:53 Cloudy 44 6.7 39 3.9 83 83 N N/A 30.15 1021 10 16.0934 N/A
4:26 am 04:26 Cloudy 44 6.7 39 3.9 83 83 N N/A 30.15 1021 10 16.0934 N/A
4:53 am 04:53 Cloudy 43 6.1 39 3.9 86 86 WNW 3 6 30.14 1021 10 16.0934 N/A
5:53 am 05:53 Cloudy with Mist and Fog 43 6.1 40 4.4 89 89 N N/A 30.15 1021 3 4.82802 N/A
6:24 am 06:24 Cloudy with Mist and Fog 42 5.6 40 4.4 92 92 N N/A 30.15 1021 3 4.82802 N/A
6:53 am 06:53 Cloudy with Light Rain 42 5.6 40 4.4 92 92 ESE 5 7 30.1 1019 4 6.43736 0.001 0.001
7:22 am 07:22 Cloudy with Mist and Fog 42 5.6 41 5 96 96 E 6 9 30.1 1019 4 6.43736 0.001 0.001
7:53 am 07:53 Cloudy with Mist and Fog 43 6.1 41 5 93 93 N N/A 30.1 1019 4 6.43736 0.001 0.001
8:34 am 08:34 Cloudy with Mist and Fog 43 6.1 41 5 93 93 WNW 3 6 30.11 1020 2.5 4.02335 0.001 0.001
8:53 am 08:53 Cloudy with Mist and Fog 43 6.1 41 5 93 93 N N/A 30.1 1019 2.5 4.02335 0.001 0.001
9:46 am 09:46 Cloudy with Mist and Fog 43 6.1 41 5 93 93 NNE 3 6 30.12 1020 1.5 2.41401 N/A
9:53 am 09:53 Cloudy with Mist and Fog 44 6.7 42 5.6 93 93 N N/A 30.11 1020 1.5 2.41401 N/A
10:24 am 10:24 Cloudy with Mist and Fog 44 6.7 42 5.6 93 93 NNE 3 6 30.12 1020 1.75 2.816345 N/A
10:33 am 10:33 Cloudy with Mist and Fog 44 6.7 42 5.6 93 93 N N/A 30.12 1020 2 3.21868 N/A
10:44 am 10:44 Cloudy with Mist and Fog 45 7.2 42 5.6 90 90 N N/A 30.12 1020 2 3.21868 N/A
10:53 am 10:53 Cloudy with Mist and Fog 45 7.2 43 6.1 93 93 N N/A 30.1 1019 2 3.21868 N/A
11:09 am 11:09 Cloudy with Mist and Fog 45 7.2 43 6.1 93 93 N N/A 30.12 1020 1.75 2.816345 N/A
11:28 am 11:28 Cloudy with Mist and Fog 45 7.2 43 6.1 93 93 N N/A 30.12 1020 2 3.21868 N/A
11:53 am 11:53 Cloudy with Mist and Fog 45 7.2 43 6.1 93 93 N N/A 30.1 1019 2 3.21868 N/A
12:15 pm 12:15 Cloudy with Mist and Fog 46 7.8 43 6.1 89 89 W 6 9 30.1 1019 3 4.82802 N/A
12:53 pm 12:53 Cloudy 47 8.3 44 6.7 90 90 SW 5 7 30.09 1019 7 11.26538 N/A
1:09 pm 13:09 Cloudy 47 8.3 43 6.1 86 86 WSW 5 7 30.09 1019 7 11.26538 N/A
1:53 pm 13:53 Cloudy 48 8.9 43 6.1 83 83 WSW 6 9 30.09 1019 10 16.0934 N/A
2:53 pm 14:53 Cloudy 50 10 42 5.6 74 74 WSW 6 9 30.05 1018 10 16.0934 N/A
3:53 pm 15:53 Cloudy 51 10.6 42 5.6 71 71 WSW 7 11 30.05 1018 10 16.0934 N/A
4:53 pm 16:53 Cloudy 52 11.1 41 5 66 66 W 7 11 30.04 1017 10 16.0934 N/A
5:40 pm 17:40 Partly Cloudy 52 11.1 41 5 66 66 WSW 6 9 30.04 1017 10 16.0934 N/A
5:53 pm 17:53 Mostly Cloudy 53 11.7 41 5 64 64 WSW 3 6 30.04 1017 10 16.0934 N/A
6:18 pm 18:18 Partly Cloudy 51 10.6 41 5 69 69 SW 5 7 30.04 1017 10 16.0934 N/A
6:34 pm 18:34 Mostly Cloudy 51 10.6 40 4.4 66 66 SSW 3 6 30.04 1017 10 16.0934 N/A
6:53 pm 18:53 Cloudy 51 10.6 41 5 69 69 N N/A 30.04 1017 10 16.0934 N/A
7:53 pm 19:53 Cloudy 50 10 41 5 71 71 N N/A 30.02 1017 10 16.0934 N/A
8:53 pm 20:53 Cloudy 49 9.4 42 5.6 77 77 NNW 3 6 30.03 1017 10 16.0934 N/A
9:53 pm 21:53 Cloudy 49 9.4 41 5 74 74 N N/A 30.02 1017 10 16.0934 N/A
10:32 pm 22:32 Cloudy 48 8.9 41 5 77 77 N N/A 30.03 1017 10 16.0934 N/A
10:53 pm 22:53 Cloudy 48 8.9 41 5 77 77 N N/A 30.02 1017 10 16.0934 N/A
11:53 pm 23:53 Cloudy 48 8.9 43 6.1 83 83 N N/A 30.03 1017 10 16.0934 N/A

Powered by AerisWeather